Orbital Elements at Epoch 2459000.5 (2020-May-31.0) TDB
Reference: JPL 15 (heliocentric ecliptic J2000)
Element | Value | Uncertainty (1-sigma) | Units |
e | .02527075086212415 | 5.2809e-08 | |
a | 3.330386758599757 | 4.4739e-08 | au |
q | 3.246225384548665 | 1.7614e-07 | au |
i | 14.113193840775 | 5.3203e-06 | deg |
node | 113.0206861320836 | 2.2907e-05 | deg |
peri | 98.91788422085294 | 0.00012831 | deg |
M | 185.4751285708618 | 0.00012948 | deg |
tp | 2460076.705629787916 (2023-May-12.20562979) | 0.00080801 | TDB |
period | 2219.935895388746 6.08 | 4.4733e-05 1.225e-07 | d yr |
n | .1621668448840314 | 3.2677e-09 | deg/d |
Q | 3.414548132650848 | 4.587e-08 | au |
|
| | Orbit Determination Parameters
Additional Information
|